Weather History for Olive Branch, MS

Change the Weather History Date:

Thursday, February 21, 2013

  Actual Average (KMEM) Record (KMEM)
Temperature  
Mean Temperature 38 °F 47 °F  
Max Temperature 44 °F 57 °F 78 °F (1922)
Min Temperature 32 °F 38 °F 15 °F (1963)
Degree Days  
Heating Degree Days 27 18  
Month to date heating degree days 430  
Since 1 July heating degree days 2332  
Cooling Degree Days 0 0  
Month to date cooling degree days 0  
Year to date cooling degree days 1  
Moisture  
Dew Point 34 °F    
Average Humidity 87    
Maximum Humidity 100    
Minimum Humidity 53    
Precipitation  
Precipitation 0.02 in 0.16 in 3.24 in (1971)
Month to date precipitation 3.25  
Year to date precipitation 7.23  
Snow  
Snow 0.00 in 0.10 in 1.10 in (1968)
Month to date snowfall 1.1  
Since 1 July snowfall 3.2  
Snow Depth -    
Sea Level Pressure  
Sea Level Pressure 29.99 in    
Wind  
Wind Speed 7 mph (East)    
Max Wind Speed 15 mph    
Max Gust Speed 21 mph    
Visibility 8 miles    
Events Rain , Thunderstorm    
T = Trace of Precipitation, MM = Missing Value Source: NWS Daily Summary

Daily Weather History Graph

Daily Weather History Graph

Search for Another Location

Airport:

Trip Planner

Search our weather history database for the weather conditions in past years. The results will help you decide how hot, cold, wet, or windy it might be!

Date:

Astronomy

Feb. 21, 2013 Rise Set
Actual Time 6:38 AM CST 5:47 PM CST
Civil Twilight 6:12 AM CST 6:13 PM CST
Nautical Twilight 5:42 AM CST 6:42 PM CST
Astronomical Twilight 5:13 AM CST 7:12 PM CST
Moon 2:08 PM CST (2/21) 3:36 AM CST (2/21)
Length of Visible Light 12h 01m
Length of Day
11h 09m
Waxing Gibbous, 84% of the Moon is Illuminated
Feb 21
Waxing Gibbous
Feb 25
Full
Mar 4
Last Quarter
Mar 11
New
Mar 19
First Quarter

Hourly Weather History & Observations

Time (CST) Temp. Windchill Dew Point Humidity Pressure Visibility Wind Dir Wind Speed Gust Speed Precip Events Conditions
12:15 AM 32.0 °F 26.4 °F 26.6 °F 80% 30.19 in 10.0 mi NE 5.8 mph - 0.00 in   Mostly Cloudy
12:35 AM 32.0 °F 25.6 °F 26.6 °F 80% 30.19 in 10.0 mi NE 6.9 mph - 0.00 in   Mostly Cloudy
12:55 AM 32.0 °F 28.7 °F 26.6 °F 80% 30.19 in 10.0 mi ENE 3.5 mph - 0.00 in   Overcast
1:15 AM 32.0 °F 25.6 °F 24.8 °F 75% 30.18 in 10.0 mi ENE 6.9 mph - 0.00 in   Overcast
1:35 AM 32.0 °F 24.8 °F 24.8 °F 75% 30.18 in 10.0 mi ENE 8.1 mph - 0.00 in   Overcast
1:55 AM 32.0 °F 24.8 °F 24.8 °F 75% 30.17 in 10.0 mi NE 8.1 mph - 0.00 in   Mostly Cloudy
2:15 AM 32.0 °F 25.6 °F 24.8 °F 75% 30.18 in 10.0 mi ENE 6.9 mph - 0.00 in   Overcast
2:35 AM 32.0 °F 26.4 °F 24.8 °F 75% 30.18 in 10.0 mi ENE 5.8 mph - 0.00 in   Overcast
2:55 AM 32.0 °F 26.4 °F 26.6 °F 80% 30.17 in 7.0 mi NE 5.8 mph - 0.00 in   Overcast
3:15 AM 32.0 °F 27.5 °F 28.4 °F 87% 30.18 in 7.0 mi NE 4.6 mph - 0.00 in   Overcast
3:35 AM 32.0 °F 25.6 °F 28.4 °F 87% 30.17 in 7.0 mi NE 6.9 mph - 0.01 in   Mostly Cloudy
3:55 AM 32.0 °F 23.0 °F 28.4 °F 87% 30.15 in 10.0 mi NE 11.5 mph - 0.01 in   Mostly Cloudy
4:15 AM 32.0 °F 23.6 °F 28.4 °F 87% 30.13 in 9.0 mi NE 10.4 mph - 0.00 in   Overcast
4:35 AM 32.0 °F 21.6 °F 26.6 °F 80% 30.12 in 10.0 mi NE 15.0 mph 19.6 mph 0.00 in   Overcast
4:55 AM 32.0 °F 24.2 °F 26.6 °F 80% 30.12 in 9.0 mi NE 9.2 mph - 0.00 in   Overcast
5:15 AM 32.0 °F 24.2 °F 26.6 °F 80% 30.12 in 8.0 mi ENE 9.2 mph - 0.00 in   Overcast
5:35 AM 32.0 °F 24.8 °F 26.6 °F 80% 30.12 in 7.0 mi ENE 8.1 mph - 0.00 in   Overcast
5:55 AM 32.0 °F 24.8 °F 26.6 °F 80% 30.12 in 10.0 mi ENE 8.1 mph - N/A   Overcast
6:50 AM 32.0 °F 23.0 °F 26.6 °F 80% 30.10 in 9.0 mi East 11.5 mph - N/A   Mostly Cloudy
7:50 AM 33.8 °F 26.4 °F 26.6 °F 75% 30.07 in 10.0 mi East 9.2 mph - N/A   Mostly Cloudy
8:50 AM 35.6 °F 28.0 °F 26.6 °F 70% 30.07 in 10.0 mi ESE 10.4 mph - N/A   Overcast
9:50 AM 37.4 °F 29.8 °F 26.6 °F 65% 29.99 in 10.0 mi East 11.5 mph 20.7 mph N/A   Mostly Cloudy
10:50 AM 39.2 °F 32.0 °F 24.8 °F 56% 29.94 in 10.0 mi ESE 11.5 mph - N/A   Overcast
11:45 AM 42.8 °F 36.6 °F 26.6 °F 53% 29.89 in 10.0 mi East 11.5 mph 18.4 mph N/A Rain , Thunderstorm Light Thunderstorms and Rain
12:45 PM 37.4 °F - 35.6 °F 93% 29.88 in 4.0 mi Calm Calm - N/A Rain , Thunderstorm Light Thunderstorms and Rain
1:55 PM 35.6 °F 30.7 °F 35.6 °F 100% 29.85 in 4.0 mi ENE 5.8 mph - N/A Rain Light Rain
2:55 PM 37.4 °F 30.3 °F 37.4 °F 100% 29.81 in 3.0 mi East 10.4 mph - N/A Rain Light Rain
3:45 PM 37.4 °F 30.3 °F 37.4 °F 100% 29.79 in 7.0 mi ESE 10.4 mph - N/A Rain Light Rain
4:50 PM 41.0 °F 35.2 °F 41.0 °F 100% 29.80 in 9.0 mi ESE 9.2 mph - N/A Rain Light Rain
5:50 PM 42.8 °F 37.0 °F 42.8 °F 100% 29.78 in 8.0 mi ESE 10.4 mph - N/A   Overcast
6:50 PM 42.8 °F 38.0 °F 42.8 °F 100% 29.77 in 10.0 mi SSE 8.1 mph - N/A   Overcast
7:50 PM 44.6 °F 38.8 °F 44.6 °F 100% 29.76 in 10.0 mi SE 11.5 mph - N/A   Overcast
8:15 PM 44.6 °F 38.8 °F 44.6 °F 100% 29.76 in 10.0 mi SSE 11.5 mph - 0.00 in   Overcast
8:35 PM 44.6 °F 40.7 °F 44.6 °F 100% 29.80 in 5.0 mi West 6.9 mph 18.4 mph 0.00 in   Overcast
8:55 PM 44.6 °F 42.2 °F 44.6 °F 100% 29.80 in 5.0 mi West 4.6 mph - 0.01 in   Overcast
9:15 PM 44.6 °F - 44.6 °F 100% 29.82 in 4.0 mi Calm Calm - 0.00 in   Overcast
9:35 PM 44.6 °F - 44.6 °F 100% 29.83 in 3.0 mi Calm Calm - 0.00 in   Mostly Cloudy
9:55 PM 44.6 °F 43.1 °F 44.6 °F 100% 29.84 in 4.0 mi South 3.5 mph - 0.00 in   Partly Cloudy
10:15 PM 44.6 °F 43.1 °F 44.6 °F 100% 29.84 in 4.0 mi SE 3.5 mph - 0.00 in   Mostly Cloudy
10:35 PM 44.6 °F 41.4 °F 44.6 °F 100% 29.86 in 5.0 mi West 5.8 mph - 0.00 in   Overcast
10:55 PM 44.6 °F 41.4 °F 44.6 °F 100% 29.86 in 5.0 mi WSW 5.8 mph - 0.00 in   Overcast
11:15 PM 44.6 °F 40.7 °F 44.6 °F 100% 29.87 in 5.0 mi West 6.9 mph - 0.00 in   Overcast
11:35 PM 44.6 °F 40.2 °F 44.6 °F 100% 29.87 in 8.0 mi WSW 8.1 mph - 0.00 in   Overcast
11:55 PM 42.8 °F 37.5 °F 42.8 °F 100% 29.88 in 8.0 mi West 9.2 mph - 0.00 in   Overcast